Torna al catalogo

HEAD-3E

AttivoComunicazioniLEO
NORAD 57630·PAYLOAD·🇨🇳 China

Lanciato Aug 14, 2023 da Xichang Satellite Launch Center

Loading…

Prossimi Passaggi (prossime 24 ore)

TLE

AggiornatoSource: Space-Track

Epoca: Sep 14, 2026, 08:34 UTC

1 57630U 23121E   26257.35697101  .00000513  00000-0  12813-3 0  9991
2 57630  45.0021 206.9153 0008534 358.6479   1.4355 14.63981668164958

Traccia HEAD-3E in tempo reale con AllMySat

Download on the App Store